Weather History for KCAG - March, 2014

Change the Weather History Date:

Sunday, March 30, 2014

  Actual Average Record
Temperature  
Mean Temperature 45 °F 38 °F  
Max Temperature 59 °F 52 °F 69 °F (2012)
Min Temperature 30 °F 24 °F 8 °F (2009)
Degree Days  
Heating Degree Days 20 27  
Month to date heating degree days 856 986  
Since 1 July heating degree days 7044 7312  
Cooling Degree Days 0 0  
Month to date cooling degree days 0 0  
Year to date cooling degree days 0 0  
Moisture  
Dew Point 28 °F    
Average Humidity 57    
Maximum Humidity 92    
Minimum Humidity 22    
Precipitation  
Precipitation 0.26 in 0.05 in 0.48 in (2008)
Month to date precipitation 0.95 1.24  
Year to date precipitation 2.26 2.94  
Sea Level Pressure  
Sea Level Pressure 29.71 in    
Wind  
Wind Speed 13 mph (SW)    
Max Wind Speed 46 mph    
Max Gust Speed 58 mph    
Visibility 6 miles    
Events Fog , Rain , Snow    
T = Trace of Precipitation, MM = Missing Value Source: NWS Daily Summary

Daily Weather History Graph

Daily Weather History Graph

Search for Another Location

Airport or City:

Trip Planner

Search our weather history database for the weather conditions in past years. The results will help you decide how hot, cold, wet, or windy it might be!

Date:

Astronomy

Mar. 30, 2014 Rise Set
Actual Time 6:56 AM MDT 7:32 PM MDT
Civil Twilight 6:29 AM MDT 8:00 PM MDT
Nautical Twilight 5:57 AM MDT 8:32 PM MDT
Astronomical Twilight 5:23 AM MDT 9:06 PM MDT
Moon 6:44 AM MDT (3/30) 7:48 PM MDT (3/30)
Length of Visible Light 13h 30m
Length of Day
12h 35m
Waning Crescent, 0% of the Moon is Illuminated
Mar 30
Waning Crescent
Mar 30
New
Apr 7
First Quarter
Apr 15
Full
Apr 22
Last Quarter

Hourly Weather History & Observations

Time (MDT) Temp. Windchill Dew Point Humidity Pressure Visibility Wind Dir Wind Speed Gust Speed Precip Events Conditions
12:53 AM 33.1 °F - 26.1 °F 75% 29.89 in 10.0 mi Calm Calm - N/A   Partly Cloudy
1:53 AM 36.0 °F - 24.1 °F 62% 29.86 in 10.0 mi Calm Calm - N/A   Clear
2:53 AM 32.0 °F - 24.1 °F 73% 29.85 in 10.0 mi Calm Calm - N/A   Clear
3:53 AM 30.9 °F 26.2 °F 24.1 °F 76% 29.83 in 10.0 mi Variable 4.6 mph - N/A   Clear
4:53 AM 33.1 °F 30.0 °F 24.1 °F 70% 29.80 in 10.0 mi SE 3.5 mph - N/A   Clear
5:53 AM 34.0 °F 29.8 °F 24.1 °F 67% 29.80 in 10.0 mi East 4.6 mph - N/A   Clear
6:53 AM 32.0 °F - 24.1 °F 73% 29.79 in 10.0 mi Calm Calm - N/A   Clear
7:53 AM 33.1 °F 26.1 °F 25.0 °F 72% 29.78 in 10.0 mi East 8.1 mph - N/A   Clear
8:53 AM 37.0 °F - 28.0 °F 70% 29.79 in 10.0 mi Calm Calm - N/A   Clear
9:53 AM 42.1 °F - 28.9 °F 60% 29.75 in 10.0 mi Calm Calm - N/A   Partly Cloudy
10:21 AM 54.0 °F - 19.9 °F 26% 29.78 in 10.0 mi SSW 28.8 mph 39.1 mph N/A   Clear
10:53 AM 53.1 °F - 23.0 °F 31% 29.72 in 10.0 mi WSW 25.3 mph 32.2 mph N/A   Mostly Cloudy
11:53 AM 53.1 °F - 21.0 °F 29% 29.70 in 10.0 mi SSW 13.8 mph - N/A   Overcast
12:53 PM 55.0 °F - 23.0 °F 29% 29.65 in 10.0 mi SSW 19.6 mph 25.3 mph N/A   Partly Cloudy
1:53 PM 54.0 °F - 21.9 °F 29% 29.59 in 10.0 mi South 21.9 mph 27.6 mph N/A   Overcast
2:53 PM 54.0 °F - 19.9 °F 26% 29.57 in 10.0 mi South 23.0 mph 31.1 mph N/A   Partly Cloudy
3:53 PM 54.0 °F - 24.1 °F 31% 29.52 in 10.0 mi SSE 19.6 mph - N/A   Mostly Cloudy
4:33 PM 57.9 °F - 18.0 °F 21% 29.54 in 10.0 mi SSW 31.1 mph 41.4 mph N/A   Mostly Cloudy
4:53 PM 55.0 °F - 18.0 °F 23% 29.47 in 10.0 mi SSW 31.1 mph 41.4 mph N/A   Partly Cloudy
5:42 PM 48.0 °F - 28.0 °F 46% 29.60 in - WSW 36.8 mph 47.2 mph 0.00 in Rain Light Rain
5:53 PM 43.0 °F 32.5 °F 34.0 °F 71% 29.61 in 8.0 mi WSW 29.9 mph 43.7 mph 0.00 in Rain Light Rain
6:33 PM 39.0 °F 31.4 °F 35.1 °F 86% 29.62 in 3.0 mi SW 12.7 mph 26.5 mph 0.02 in Rain Rain
6:49 PM 37.4 °F 30.8 °F 35.6 °F 93% 29.62 in 3.0 mi West 9.2 mph - 0.04 in Rain Rain
6:53 PM 37.9 °F 29.6 °F 36.0 °F 93% 29.64 in 2.5 mi West 13.8 mph - 0.05 in Rain Rain
7:13 PM 33.1 °F 22.6 °F 32.0 °F 96% 29.65 in 2.0 mi West 16.1 mph - 0.06 in Snow Light Snow
7:21 PM 33.1 °F 22.6 °F 32.0 °F 96% 29.66 in 1.5 mi WSW 16.1 mph - 0.08 in Snow Light Snow
7:26 PM 33.1 °F 23.4 °F 32.0 °F 96% 29.66 in 1.0 mi WSW 13.8 mph - 0.10 in Snow Light Snow
7:36 PM 32.0 °F 22.1 °F 32.0 °F 100% 29.67 in 0.5 mi WSW 13.8 mph - 0.15 in Fog , Snow Snow
7:48 PM 32.0 °F 24.8 °F 32.0 °F 100% 29.65 in 1.2 mi South 8.1 mph - 0.17 in Snow Light Snow
7:53 PM 33.1 °F 27.7 °F 33.1 °F 100% 29.68 in 3.0 mi SSW 5.8 mph - 0.17 in Snow Light Snow
8:08 PM 33.1 °F 28.7 °F 32.0 °F 96% 29.65 in 10.0 mi South 4.6 mph - 0.00 in   Mostly Cloudy
8:53 PM 36.0 °F 24.2 °F 30.9 °F 82% 29.68 in 10.0 mi WSW 24.2 mph 32.2 mph 0.00 in Rain Light Rain
9:38 PM 35.1 °F - 30.9 °F 85% 29.73 in 2.5 mi North - - N/A Snow Light Snow
9:42 PM 33.1 °F - 30.9 °F 92% 29.73 in 1.0 mi North - - N/A Snow Light Snow
9:47 PM 32.0 °F 19.5 °F 30.2 °F 93% 29.73 in 0.5 mi WSW 21.9 mph - N/A Fog , Snow Snow
9:53 PM 32.0 °F 20.5 °F 30.9 °F 96% 29.74 in 0.2 mi West 18.4 mph 27.6 mph N/A Fog , Snow Heavy Snow
10:11 PM 32.0 °F 19.2 °F 30.9 °F 96% 29.75 in 0.5 mi WSW 23.0 mph - 0.00 in Fog , Snow Snow
10:49 PM 32.0 °F 20.1 °F 30.2 °F 93% 29.78 in 2.0 mi West 19.6 mph 28.8 mph 0.00 in Snow Light Snow
10:53 PM 32.0 °F 21.6 °F 30.0 °F 92% 29.73 in 2.5 mi WSW 15.0 mph 28.8 mph 0.00 in Snow Light Snow
11:04 PM 32.0 °F 21.6 °F 30.9 °F 96% 29.79 in 3.0 mi WSW 15.0 mph - 0.00 in Snow Light Snow
11:37 PM 33.1 °F 22.2 °F 30.0 °F 89% 29.80 in 2.5 mi WSW 17.3 mph - 0.00 in Snow Light Snow
11:53 PM 32.0 °F 21.2 °F 30.0 °F 92% 29.76 in 1.5 mi WSW 16.1 mph - 0.00 in Snow Light Snow